Home > Weather > Grande Prairie > Past weeks

Flag for Canada Weather for the Past 2 Weeks in Grande Prairie, Alberta, Canada

Now
77 °F

Partly sunny.


Feels Like: 77 °F
Forecast: 48 / 79 °F
Wind: 3 mph from Northeast

Location: Grande Prairie

Current Time: May 2, 2016 at 9:32:52 PM

Latest Report: May 2, 2016 at 8:00 PM


Visibility: 25 mi

Pressure: 29.89 "Hg (27.72 "Hg at 657m altitude)

Humidity: 22%

Dew Point: 36 °F

Location of Grande PrairieLocation

Historic Weather in Grande Prairie — Graph

°F

Grande Prairie Temperature Yesterday

Maximum temperature yesterday: 73 °F (at 5:00 PM)
Minimum temperature yesterday: 45 °F (at 1:00 AM)
Average temperature yesterday: 60 °F

High & Low Weather Summary for the Past Weeks

 TemperatureHumidityPressure
High84 °F (Apr 18, 6:00 PM)93% (Apr 18, 6:00 AM)30.34 "Hg (Apr 18, 6:00 AM)
Low30 °F (Apr 20, 7:00 AM)7% (Apr 19, 6:00 PM)29.79 "Hg (Apr 18, 7:00 PM)
Average51 °F48%30.03 "Hg
* Reported Apr 17 7:00 PM — May 2 7:00 PM, Grande Prairie, Weather by CustomWeather, © 2016

Note: Actual official high and low records may vary slightly from our data, if they occured in-between our weather recording intervals... More about our weather records

Advertising

Grande Prairie Weather History for the Previous 24 Hours

Scroll right to see more
 ConditionsComfort  
Time TempWeatherWind HumidityBarometerVisibility
7:00 PM
Mon, May 2
79 °FPartly sunny.2 mph23%29.91 "Hg25 mi
6:00 PM81 °FPartly sunny.3 mph23%29.92 "Hg25 mi
5:00 PM81 °FPartly sunny.No wind18%29.93 "Hg25 mi
4:00 PM79 °FPartly sunny.5 mph23%29.95 "Hg25 mi
3:00 PM77 °FPartly sunny.9 mph24%29.97 "Hg25 mi
2:00 PM75 °FPartly sunny.5 mph29%29.99 "Hg25 mi
1:00 PM72 °FPartly sunny.5 mph36%30.01 "Hg25 mi
12:00 PM66 °FPartly sunny.3 mph46%30.02 "Hg25 mi
11:00 AM63 °FPartly sunny.5 mph49%30.02 "Hg25 mi
10:00 AM59 °FPartly sunny.5 mph59%30.03 "Hg25 mi
9:00 AM54 °FScattered clouds.3 mph63%30.03 "Hg25 mi
8:00 AM48 °FPartly sunny.2 mph76%30.04 "Hg25 mi
7:00 AM41 °FPassing clouds.2 mph87%30.05 "Hg25 mi
6:00 AM41 °FPassing clouds.2 mph87%30.05 "Hg25 mi
5:00 AM41 °FPassing clouds.2 mph93%30.05 "Hg25 mi
4:00 AM45 °FPassing clouds.No wind81%30.06 "Hg25 mi
3:00 AM45 °FPassing clouds.2 mph87%30.07 "Hg25 mi
2:00 AM46 °FPassing clouds.7 mph71%30.07 "Hg25 mi
1:00 AM46 °FPassing clouds.2 mph76%30.08 "Hg25 mi
12:00 AM52 °FPassing clouds.3 mph67%30.08 "Hg25 mi
11:00 PM
Sun, May 1
57 °FPassing clouds.5 mph51%30.09 "Hg25 mi
10:00 PM61 °FPartly sunny.3 mph45%30.07 "Hg25 mi
9:00 PM68 °FPartly sunny.7 mph35%30.07 "Hg25 mi
Weather by CustomWeather, © 2016

See weather overviewHow to use our weather pages